Location: Alvediston
(51.0078°N, 2.0364°W)
Time: 15:22:26
(UTC+00:00)

STARLINK-1024 - Pass Details

Date: 27 February 2020
Orbit: 549 x 551 km, 53.0° (Epoch: 30 March)

Event Time Altitude Azimuth Distance (km) Brightness Sun altitude
Rises 18:26:17 0° 243° (WSW) 2,711 8.6 -7.3°
Maximum altitude 18:32:38 74° 157° (SSE) 575 3.6 -8.3°
Enters shadow 18:36:36 11° 73° (ENE) 1,756 5.6 -8.9°
